Regional Weather Roundup
Issued by NWS Goodland, KS

Home | Current Version | Previous Version | Graphics & Text | Print | Product List | Glossary On
Versions: 1 2 3 4 5 6 7 8 9 10 11 12 13 14 15 16 17 18 19 20 21 22 23 24 25 26 27 28 29 30 31 32 33 34 35 36 37 38 39 40 41 42 43 44 45 46 47 48 49 50
000
ASUS43 KGLD 011559
RWRGLD

GOODLAND FORECAST AREA HOURLY WEATHER ROUNDUP
NATIONAL WEATHER SERVICE GOODLAND KS
1000 AM MDT WED JUL 01 2015

...OFFICIAL OBSERVATIONS...

CITY           SKY/WX    TMP DP  RH WIND       PRES   REMARKS
GOODLAND KS    MOSUNNY   85  60  42 N15       29.99R
HILL CITY KS   MOSUNNY   88  63  43 N21G26    29.87R
IMPERIAL NEB   SUNNY     90  56  31 N12       29.96S
MCCOOK NEB     SUNNY     85  65  51 NE12      29.90S
AKRON CO       SUNNY     80  58  46 N9        30.10R
BURLINGTON CO  MOSUNNY   83  56  39 N15       30.05R
LIMON CO       MOSUNNY   79  56  45 N9        30.16R
$$

...UNOFFICIAL OBSERVATIONS...

CITY           SKY/WX    TMP DP  RH WIND       PRES   REMARKS
COLBY KS       MOSUNNY   88  64  45 N14G21    29.95S
GOVE KS          N/A     86  32  14 MISG        N/A
NORTON KS      SUNNY     81  61  50 N15G23    29.88R
SHARON SPRINGS   N/A     85  59  41 N13G22      N/A
KIT CARSON CO    N/A     84  58  41 MISG        N/A
$$


USA.gov is the U.S. government's official web portal to all federal, state and local government web resources and services.